Location: Unspecified
(0.0000°N, 0.0000°E)
Time: 20:48:15
(UTC+00:00)

Okean 3 - Pass Details

Date: 02 June 2019
Orbit: 577 x 601 km, 82.5° (Epoch: 18 June)

Event Time Altitude Azimuth Distance (km) Brightness Sun altitude
Rises 19:07:43 0° 186° (S) 2,793 6.7 -16.1°
Reaches altitude 10° 19:09:55 10° 187° (S) 1,890 5.9 -16.6°
Maximum altitude 19:14:04 78° 273° (W) 592 3.5 -17.5°
Drops below altitude 10° 19:18:13 10° 0° (N) 1,879 6.3 -18.5°
Sets 19:20:23 0° 2° (N) 2,775 7.2 -19.0°
